OBJECT B, 69793

Orbit data source: Space-Track

You're viewing an Uncataloged Satellite

Recently launched and/or uncataloged satellites may have evolving metadata. Metadata may include but not limited to: Owner, Maufacturer, Bus, Motor, and Mission.

OBJECT B, 69793 is a satellite owned by NGIS FSG (US) in LEO that was launched on Fri, 03 Jul 2026 UTC launched from the Kwajalein (KWAJL). Unknown objects in Earth's orbit typically refer to objects detected orbiting the Earth but have not yet been identified or cataloged. These objects could be anything from previously untracked satellites, spent rocket stages, debris from satellite collisions, or even natural meteoroids temporarily captured by Earth's gravity.

Not visible in the next 10 days
Identifier
69793, 2026-152B
Orbit
LEO
Country
Flag of USUS
Related business
Manufacturer
NGIS FSG
Mission
Spacecraft
Bus & Motor
ORION 38, Unknown motor
Mass
202 kg wet, 202 kg dry
Launch date (UTC)
2026-07-03 (3 weeks ago)
Launch vehicle
Unknown
Launch site
Kwajalein (KWAJL)
Object type
Unknown
Shape & HBR
Unknown
Radar Cross Section
Large (>1 m²)

Expand to show TLE details & history
Last TLE update: 18 hours ago

TLE from 18 hours ago
0 OBJECT B
1 69793U 26152B   26202.44017697  .00045752  00000-0  42447-3 0  9997
2 69793  20.5974 279.6496 0023146  78.8985 281.4063 15.65232688  2830
Epoch: 2026-07-21T10:33Z
TLE epoch observation values (Epoch: 2026-07-21T10:33:51.290Z)
Latitude
Longitude
-178.02394°
Altitude
367.071 km
Speed
7.694 km/s
True Right ascension
18h 38m 35s
True Declination
0° 00' 00"
Sunlit
Object was in full shadow at epoch
Visualization orbit readout
Latitude
Unknown
Longitude
Unknown
Altitude
Unknown
Speed
Unknown
Apparent Right ascension
Unknown
Apparent Declination
Unknown
Sunlit
N/A
Visualization observer readout
Local Sidereal Time
17:12:53
Azimuth
Unknown
Elevation
Unknown
Doppler factor
Unknown
Orbital elements
Apogee altitude
393.527 km
Perigee altitude
362.252 km
Semi-major axis
6,756.027 km
Eccentricity
0.00231
Inclination
20.5974°
RAAN
279.6496°
Arg. of periapsis
78.8985°
True anomaly
281.14616°
Mean anomaly
281.4063°
Eccentric anomaly
281.27624°
Mean motion
3.90846 °/min
Orbital period
92.11 mins
BSTAR
0.00042447
Loading maneuver chart data...
Computing Atmospheric mass density...
Loading historical data...
Loading historical data...
Loading historical data...
Loading historical data...
Loading historical data...
Loading historical data...
Loading historical data...
Other satellites on launch #152 in the year 2026 (2026-07-03 UTC)

Documentation

Showing up to 5 results
|